Location: Mohawk View
(42.7837°N, 73.7885°W)
Time: 09:26:12
(UTC+00:00)

Meteor 1-24 Rocket - Pass Details

Date: 26 October 2021
Orbit: 790 x 927 km, 81.3° (Epoch: 27 November)

Event Time Altitude Azimuth Distance (km) Brightness Sun altitude
Rises 08:52:19 0° 143° (SE) 3,286 7.1 -28.0°
Reaches altitude 10° 08:55:27 10° 123° (ESE) 2,375 6.6 -27.4°
Maximum altitude 08:58:47 17° 84° (E) 1,953 6.4 -26.8°
Drops below altitude 10° 09:02:10 10° 46° (NE) 2,427 6.7 -26.2°
Sets 09:05:24 0° 27° (NNE) 3,391 7.3 -25.6°
